Regional Weather Roundup
Issued by NWS

Home | Current Version | Previous Version | Graphics & Text | Print | Product List | Glossary On
Versions: 1 2 3 4 5 6 7 8 9 10 11 12 13 14 15 16 17 18 19 20 21 22 23 24 25 26 27 28 29 30 31 32 33 34 35 36 37 38 39 40 41 42 43 44 45 46 47 48 49 50
000
ASUS43 KMPX 310810
RWRMN
WEATHER ROUNDUP FOR MINNESOTA
NATIONAL WEATHER SERVICE TWIN CITIES/CHANHASSEN MN
300 AM CDT THU JUL 31 2014


NOTE: "FAIR" INDICATES FEW OR NO CLOUDS BELOW 12,000 FEET WITH NO
SIGNIFICANT WEATHER AND/OR OBSTRUCTIONS TO VISIBILITY. N/A MEANS
CURRENT SKY AND/OR WEATHER CONDITIONS ARE NOT AVAILABLE.

MNZ060>063-068>070-310900-
   Twin Cities Metro

CITY           SKY/WX    TMP DP  RH WIND       PRES   REMARKS
TWIN CITIES    CLEAR     66  58  75 CALM      30.03F
ST PAUL        CLEAR     64  59  83 CALM      30.03S
CRYSTAL        CLEAR     64  55  72 W3        30.02S
BLAINE         CLEAR     63  59  88 W3        30.03S
LAKEVILLE      CLEAR     59  55  88 CALM      30.04S
EDEN PRAIRIE   CLEAR     63  58  83 CALM      30.03F
SOUTH ST PAUL  CLEAR     65  58  78 CALM      30.03S
LAKE ELMO      FAIR      55  55 100 CALM      30.04S
$$
MNZ001>005-007-008-013>017-022>024-027-028-310900-
   Northwest Minnesota

CITY           SKY/WX    TMP DP  RH WIND       PRES   REMARKS
BEMIDJI        CLEAR     58  53  85 W5        30.03F
HALLOCK        CLEAR     61  57  88 CALM      30.01F
ROSEAU         CLEAR     63  57  82 W5        30.01F
WARROAD        CLEAR     63  57  82 W3        30.01S
THIEF RVR FALL CLEAR     61  57  88 CALM      30.03F
CROOKSTON      CLEAR     59  55  88 SW3       30.04S
FOSSTON        CLEAR     54  52  94 S5        30.05S
DETROIT LAKES  CLEAR     59  57  94 CALM      30.07S
MOORHEAD       CLEAR     61  61 100 CALM      30.05S
PARK RAPIDS    CLEAR     53  52  96 W5        30.05S
$$
MNZ006-009>011-018-025>026-310900-
   North Central Minnesota

CITY           SKY/WX    TMP DP  RH WIND       PRES   REMARKS
BAUDETTE       CLEAR     62  58  86 W5        30.01S
FLAG ISLAND    CLEAR     68  63  83 NW5       29.99S
INTL FALLS     CLEAR     49  48  97 CALM      29.99S
WASKISH        CLEAR     64  59  82 NW7       30.01S
BIG FORK       CLEAR     55  54  94 SW1       30.01F
LONGVILLE      CLEAR     55  54  94 CALM      30.02F
GRAND RAPIDS   CLEAR     63  55  77 W6        30.01S
CRANE LAKE     CLEAR     48  48 100 CALM      30.00F FOG
ORR            PTCLDY    54  52  94 CALM      29.97F FOG
COOK           FOG       54  54 100 CALM      30.00S VSB 1
$$
MNZ012-019>021-037-310900-
   Northeast Minnesota

CITY           SKY/WX    TMP DP  RH WIND       PRES   REMARKS
DULUTH         MOCLDY    62  56  80 N6        29.99F
ELY            CLEAR     52  50  93 CALM      29.99S FOG
HIBBING        FOG       55  54  96 CALM      30.00S VSB 1
EVELETH        PTCLDY    57  55  94 CALM      30.00F FOG
DULUTH HARBOR  CLEAR     64  57  77 CALM      29.98S
TWO HARBORS    PTCLDY    61  55  82 NW5       29.96F
SILVER BAY     CLEAR     48  48 100 CALM      29.96F
GRAND MARAIS     N/A     60  50  69 NW7       29.93S
G MARAIS ARPRT CLEAR     48  45  87 N5        29.98S
$$
MNZ029>031-032-039>041-046>048-054>057-064-310900-
   West Central Minnesota

CITY           SKY/WX    TMP DP  RH WIND       PRES   REMARKS
FERGUS FALLS   CLEAR     61  57  88 CALM      30.05F
WHEATON        PTCLDY    57  54  88 W3        30.07F
MORRIS         CLEAR     55  54  94 CALM      30.05F
ALEXANDRIA     PTCLDY    60  57  89 CALM      30.07F
ELBOW LAKE     FAIR      58  55  90 CALM      30.05F
WADENA         CLEAR     54  52  94 CALM      30.05F
GLENWOOD       CLEAR     59  57  94 CALM      30.07S
APPLETON       CLEAR     57  54  88 SW3       30.06S
BENSON         CLEAR     55  55 100 CALM      30.06F
ORTONVILLE     CLEAR     63  54  72 W6        30.06F
MADISON        CLEAR     57  55  94 W3        30.07F
WILLMAR        FAIR      57  54  88 CALM      30.08S
$$
MNZ033>034-036-042>043-049>051-058-059-310900-
   Central Minnesota

CITY           SKY/WX    TMP DP  RH WIND       PRES   REMARKS
ST CLOUD       CLEAR     58  54  86 CALM      30.04F
SAUK CENTRE    FAIR      56  53  87 CALM      30.06F
PAYNESVILLE    CLEAR     50  50 100 SW3       30.06F
AITKIN         CLEAR     61  55  82 CALM      30.01F
PINE RIVER     CLEAR     54  52  94 CALM      30.07S
BRAINERD       CLEAR     54  53  97 S3        30.04F
STAPLES        CLEAR     55  52  88 CALM      30.05F
LONG PRAIRIE   FAIR      54  52  94 CALM      30.06F
LITTLE FALLS   CLEAR     52  52 100 CALM      30.05S
LITCHFIELD     PTCLDY    63  59  88 CALM      30.06F
BUFFALO        CLEAR     62  56  79 CALM      30.05F
MAPLE LAKE     CLEAR     60  57  88 CALM      30.05F
$$
MNZ037-044-045-052-053-310900-
   East Central Minnesota

CITY           SKY/WX    TMP DP  RH WIND       PRES   REMARKS
PRINCETON      CLEAR     55  54  94 CALM      30.04S
MORA           CLEAR     55  52  88 CALM      30.04S
CAMBRIDGE      CLEAR     61  52  72 CALM      30.01S
RUSH CITY      MOCLDY    59  55  86 CALM      30.02S
MOOSE LAKE     CLEAR     61  55  82 W6        29.99S
HINCKLEY       FAIR      61  57  88 W3        30.01S
CLOQUET        PTCLDY    61  55  82 NW6       30.00F
MCGREGOR       CLEAR     63  55  77 NW3       30.02S
$$
MNZ071>073-080-081-089-090-097-098-310900-
   Southwest Minnesota

CITY           SKY/WX    TMP DP  RH WIND       PRES   REMARKS
MONTEVIDEO     CLEAR     61  55  82 W5        30.07F
GRANITE FALLS  CLEAR     55  53  92 SW6       30.08F
CANBY          CLEAR     56  54  92 CALM      30.08F
MARSHALL       CLEAR     57  52  82 W3        30.07F
REDWOOD FALLS  CLEAR     61  55  81 W3        30.07S
OLIVIA         CLEAR     57  54  88 CALM      30.06S
PIPESTONE      CLEAR     61  54  77 CALM      30.10S
WINDOM         PTCLDY    57  55  94 CALM      30.09F
WORTHINGTON    CLEAR     59  54  82 SW5       30.11F
JACKSON        CLEAR     55  52  88 CALM      30.10S
TRACY          PTCLDY    63  56  79 SW5       30.09S
SLAYTON        CLEAR     56  54  94 CALM      30.11S
$$
MNZ065>067-074>077-082>085-091>093-310900-
   South Central Minnesota

CITY           SKY/WX    TMP DP  RH WIND       PRES   REMARKS
MANKATO        CLEAR     61  54  77 CALM      30.06S
NEW ULM        CLEAR     55  55 100 W5        30.07S
ST JAMES       CLEAR     57  54  88 SW6       30.09S
FAIRMONT       CLOUDY    59  52  77 W3        30.08S
GLENCOE        CLEAR     59  54  83 W3        30.05S
FARIBAULT      CLEAR     61  54  77 CALM      30.06S
OWATONNA       CLEAR     57  54  88 CALM      30.06S
WASECA         CLEAR     52  48  87 CALM      30.08S
ALBERT LEA     CLEAR     63  55  77 CALM      30.07S
$$
MNZ078>079-086>088-094>096-310900-
   Southeast Minnesota

CITY           SKY/WX    TMP DP  RH WIND       PRES   REMARKS
ROCHESTER      CLEAR     59  55  87 W8        30.07S
RED WING       CLEAR     57  57 100 CALM      30.02S
STANTON        CLEAR     61  56  85 SW3       30.03S
DODGE CENTER   CLEAR     57  55  94 W6        30.06S
WINONA         CLEAR     63  57  82 CALM      30.02F
AUSTIN         CLEAR     59  55  88 SW3       30.07S
PRESTON        CLEAR     59  58  98 W7        30.06S
$$
ABBREVIATIONS USED IN REMARKS
   TC - TEMPERATURES IN CELSIUS
  WCI - WIND CHILL INDEX
   HX - HEAT INDEX
  VSB - VISIBILITY
$$


USA.gov is the U.S. government's official web portal to all federal, state and local government web resources and services.